Location: Brede
(50.9167°N, 0.6000°E)
Time: 10:44:36
(UTC+00:00)

ISS - Pass Details

Date: 05 November 2020
Orbit: 418 x 420 km, 51.6° (Epoch: 04 December)

Event Time Altitude Azimuth Distance (km) Brightness Sun altitude
Exits shadow 05:43:00 20° 272° (W) 1,041 -2.4 -11.9°
Maximum altitude 05:45:03 47° 205° (SSW) 565 -3.2 -11.6°
Drops below altitude 10° 05:48:18 10° 130° (SE) 1,503 0.1 -11.1°
Sets 05:50:27 0° 125° (SE) 2,365 1.5 -10.8°
